Portada
METAR-TAF:

METAR-TAF

Aeroports :

Plataforma petroliera

Troll A, Noruega

latitud: 60-38-42N, longitud: 3-43-29E, altitud: 20 m

Observació

L'informe es va fer fa 32 minuts, a les 20:50 UTC
Vent 17 kt del Oest
Temperatura 11°C
Humitat 94%
Pressió 1023 hPa
Visibilitat: 6000 m

METAR: ENQA 192050Z AUTO 26017KT 6000NDV OVC005/// 11/10 Q1023 W11/S3

Hora: 23:22 (21:22 UTC)


TAF: manca

Observacions i pronòstics meteorològics de més de 4000 aeroports (METAR i TAF).

Les estacions disponibles són els punts grocs i vermells al mapa.

Posi el ratolí al punt desitjat per veure el nom de l'estació.

Feu clic per veure les observacions i els pronòstics meteorològics.

Per canviar el mapa: feu clic els botons verds amb una creu de color negre per apropar; al botó verd amb un guió per allunyar la imatge; o en les fletxes verdes per a mapes adjacents.


METAR-TAF: